Dewpoint
49 49 49 49 49 49 49 49 49 50 50 50 50 50 51 51 51 51 51 51 52 52 52 52 53 52 53 53 53 53 53 49 48 47 45 45 50 60 61 61 59 60 57 42 42 36 30 33 35 37 36 33 29 25 21 18 19 19 18 16 14 14 12 10 3 7 9 7 10 12 13 11 7 9 21 20 19 20 52 57 60 62 63 63 65 66 66 66
48 49 48 49 49 49 49 49 49 50 50 50 50 51 51 50 51 51 51 51 51 52 52 52 52 52 52 52 53 53 52 49 47 46 46 49 56 60 61 60 60 57 54 39 36 35 27 29 32 34 34 30 26 20 18 16 17 15 19 16 11 10 10 7 7 6 6 8 14 16 10 12 11 11 14 15 13 21 49 56 61 62 63 64 65 65 66 67
49 48 49 49 50 49 49 49 49 50 50 50 50 50 51 51 51 51 51 51 51 51 52 52 52 52 52 52 53 54 50 47 46 44 44 55 56 59 62 60 60 59 36 34 35 33 27 28 31 33 31 27 20 17 13 12 15 13 16 14 12 10 8 7 9 10 9 9 8 8 13 14 9 8 13 10 8 10 46 54 59 61 62 63 64 65 65 66
49 48 48 48 49 49 49 49 49 49 49 49 50 50 50 50 51 51 51 51 51 51 52 52 52 52 52 52 53 52 49 46 39 38 41 56 58 58 60 60 60 58 37 32 34 34 30 29 30 31 27 24 20 15 9 11 14 12 11 10 11 10 8 8 9 11 12 10 9 9 8 6 7 15 13 9 8 14 52 55 57 60 62 63 63 64 65 65
48 48 48 48 49 49 49 49 49 49 49 49 49 50 50 50 51 51 51 51 51 52 52 52 52 52 52 52 54 50 45 36 33 47 50 61 59 58 60 60 62 50 41 32 31 30 31 31 29 27 25 20 18 15 7 8 14 13 10 10 10 10 9 8 12 13 11 12 12 12 8 7 4 12 12 14 7 18 53 56 59 62 63 63 63 64 65 65
47 48 48 48 48 48 49 49 49 49 49 49 49 50 50 50 50 50 51 51 51 52 52 52 52 52 52 53 51 49 40 29 35 44 61 61 59 60 62 63 62 47 39 32 30 31 36 34 28 24 23 19 17 15 8 6 12 8 7 7 8 8 6 5 8 13 11 10 12 8 9 6 7 14 12 11 14 49 56 57 60 62 63 63 64 64 64 64
48 47 48 48 48 48 48 49 49 49 49 49 49 50 50 50 50 50 51 51 51 51 52 52 52 52 52 52 48 46 41 36 34 48 59 63 63 63 61 60 60 50 39 29 28 31 37 32 27 25 22 18 17 17 15 6 7 6 5 8 8 9 7 6 6 11 9 11 12 11 7 8 9 9 13 8 50 54 56 58 60 62 63 62 63 64 64 64
49 49 47 48 48 48 48 48 49 49 49 49 49 49 49 50 50 50 50 51 51 51 52 52 52 52 52 49 42 41 41 37 35 48 65 64 60 61 58 51 43 42 38 29 29 34 38 30 26 25 21 17 15 15 14 11 5 4 4 5 6 5 6 7 9 9 13 12 11 10 5 5 8 11 9 15 54 55 55 59 60 61 62 62 63 64 64 64
47 49 48 48 48 48 48 48 48 49 49 49 49 49 49 50 50 50 50 50 51 51 52 51 51 51 52 48 45 39 33 36 39 53 63 57 54 56 49 41 38 36 36 35 34 36 36 27 26 24 20 19 17 14 11 8 4 3 4 4 5 4 5 6 8 10 12 15 11 10 7 6 6 8 6 5 51 54 56 58 60 62 61 62 63 64 64 64
47 48 48 48 48 48 48 48 48 48 48 48 49 49 49 49 49 50 50 50 51 51 51 51 51 51 49 45 40 35 33 43 48 54 57 54 54 51 45 33 34 31 36 38 39 38 37 27 24 24 21 19 16 10 9 5 4 5 5 3 2 1 2 4 3 9 9 10 8 5 7 6 7 6 2 5 45 53 55 58 60 60 60 61 63 64 64 64
47 48 49 48 48 48 48 48 48 48 48 48 49 49 49 49 50 50 50 50 51 51 51 51 51 50 46 43 38 33 33 47 51 54 53 52 48 42 39 29 31 30 36 38 38 37 35 28 21 19 17 15 11 7 6 5 7 5 8 8 8 8 12 13 12 8 9 11 11 11 7 7 5 8 2 3 50 55 55 57 58 59 60 62 64 64 65 65
47 48 49 48 48 48 48 48 48 48 48 48 48 48 49 49 49 50 50 50 51 51 51 51 51 48 47 45 39 36 37 30 48 50 48 42 38 33 33 27 27 31 35 34 34 32 27 21 18 16 8 11 5 5 3 5 4 4 4 1 7 9 8 10 10 9 11 9 10 11 8 6 5 1 2 5 52 55 57 57 57 56 59 62 63 64 64 64
47 47 47 48 48 48 48 48 48 48 48 48 48 49 49 49 49 50 50 50 50 51 51 52 52 48 47 41 39 39 35 33 29 41 37 35 32 26 28 27 27 29 30 31 32 26 23 20 17 12 12 10 10 2 12 11 8 3 2 6 3 4 3 5 9 8 6 8 9 9 4 5 1 1 1 2 51 53 54 54 53 53 56 58 61 63 62 59
48 48 48 48 48 47 48 48 48 48 48 48 48 49 49 49 50 50 51 50 51 51 51 53 50 48 46 41 34 36 34 33 28 35 32 32 29 25 27 29 25 25 27 31 32 25 19 17 19 17 15 13 10 11 8 10 10 6 5 5 8 7 5 4 4 5 4 5 6 5 7 9 3 2 1 1 15 52 51 50 50 53 55 56 61 61 58 60
47 47 47 47 47 47 48 48 48 48 48 48 48 48 49 49 50 50 51 51 50 50 52 53 50 46 43 38 37 38 56 47 31 36 34 30 28 27 29 32 27 25 27 28 27 30 27 22 18 18 13 15 12 10 7 9 13 6 6 8 6 6 4 4 6 3 2 5 5 3 16 3 3 3 2 1 -0 40 50 50 53 54 55 57 57 57 57 57
46 47 47 47 47 47 47 47 47 47 48 48 48 48 49 49 50 50 51 51 51 51 51 49 47 46 41 32 28 40 34 22 24 31 34 31 28 28 30 31 28 26 26 29 31 29 27 23 20 15 13 12 10 8 8 9 11 9 8 26 9 4 3 3 2 2 1 2 2 3 4 1 1 2 2 2 -1 41 51 52 53 54 55 57 58 57 56 57
47 47 47 47 47 47 47 47 47 47 48 48 48 48 49 49 50 50 50 50 49 50 48 44 43 45 35 29 35 22 20 18 21 26 30 31 29 29 30 29 26 25 28 30 28 30 26 22 22 18 14 9 11 9 10 12 17 12 7 10 11 6 6 3 -1 0 0 3 -1 1 1 4 5 5 4 1 -2 49 50 51 52 53 53 56 57 57 57 58
46 46 46 47 47 46 47 47 47 47 48 48 48 48 47 50 51 51 49 50 47 47 46 46 43 39 37 37 34 28 22 18 14 17 25 28 28 29 27 26 27 26 27 26 27 23 21 21 15 18 21 17 13 13 11 11 15 17 13 14 9 4 4 3 -2 1 1 4 8 7 5 5 6 5 4 3 6 49 49 50 49 51 52 55 55 55 55 56
46 46 46 46 46 46 47 47 47 47 47 49 48 49 50 52 50 46 44 44 44 42 39 39 39 34 18 31 36 32 23 18 13 15 20 26 27 28 27 27 25 24 24 24 24 23 19 19 28 16 15 15 11 9 10 9 8 9 12 9 10 15 10 4 1 2 4 8 4 6 7 5 6 4 8 18 44 48 49 49 49 49 52 54 54 54 55 55
46 46 46 46 46 46 46 47 47 47 47 46 44 44 45 48 47 46 45 43 40 39 30 33 38 35 30 22 27 31 26 15 8 10 19 25 27 27 26 23 22 22 24 24 24 24 19 17 15 13 13 15 18 12 10 8 7 6 6 9 9 8 7 9 4 5 4 4 7 9 13 11 9 9 14 16 23 45 48 48 49 50 52 53 55 55 55 55
46 46 46 45 46 46 46 47 47 47 47 46 44 42 39 33 27 35 43 40 40 39 37 35 34 35 29 23 24 23 16 15 13 7 11 23 23 24 22 22 22 25 24 23 25 27 18 18 16 15 13 13 16 20 22 17 17 14 11 12 12 12 9 9 5 5 10 24 12 17 10 11 9 11 12 16 19 19 46 47 49 49 51 53 55 55 55 54
45 46 46 46 46 46 46 47 47 47 48 45 43 39 36 35 27 27 29 25 33 39 38 36 34 32 31 29 29 27 26 23 23 8 12 18 17 18 20 21 21 22 25 24 24 23 19 17 17 15 12 15 17 23 24 22 22 20 16 16 17 16 13 11 4 6 8 17 11 11 11 15 18 17 16 19 15 18 45 47 48 48 49 51 54 54 54 54
45 45 45 46 46 46 46 47 48 48 45 43 40 40 39 36 34 24 27 25 25 26 34 37 37 36 34 31 25 27 23 22 21 12 13 16 15 15 19 19 20 22 23 24 24 25 19 14 15 12 15 19 17 14 20 24 24 18 15 13 16 17 16 11 25 6 8 14 21 21 13 20 27 21 18 18 17 19 29 45 45 47 47 47 50 52 54 54
45 45 45 46 46 46 46 47 47 45 44 43 38 33 33 33 29 21 33 31 28 27 24 22 32 36 34 26 22 25 23 21 21 18 18 15 13 13 13 18 17 21 21 21 20 20 14 14 13 12 11 13 19 21 20 22 22 32 30 22 19 16 14 10 14 16 26 24 25 17 23 23 23 16 16 16 18 16 9 40 45 44 45 47 50 52 53 52
45 45 45 46 46 46 47 47 43 43 43 43 40 38 35 31 30 34 35 32 30 25 23 21 20 28 30 26 22 18 21 19 18 19 17 15 13 12 11 17 16 18 20 20 19 18 17 16 15 11 10 8 11 13 16 23 21 28 33 30 21 20 19 12 14 13 23 19 28 13 13 19 23 16 14 14 13 13 14 11 42 43 43 45 49 50 51 52
45 45 45 45 46 46 47 43 43 40 37 37 40 41 40 37 36 34 38 37 32 29 22 16 18 18 26 17 15 16 18 15 15 15 19 16 19 13 14 14 18 15 18 18 17 18 14 17 20 12 11 8 4 7 10 20 24 24 27 23 21 20 18 13 9 12 13 11 19 28 13 20 22 18 16 15 13 10 16 13 12 38 42 45 48 48 49 50
45 45 45 46 45 46 42 42 43 41 35 31 30 33 24 31 42 42 38 31 24 22 13 12 16 14 21 15 11 13 14 12 13 15 22 23 17 17 13 14 18 17 16 25 20 15 14 13 15 15 13 8 6 6 23 19 21 22 27 19 19 18 14 12 9 7 11 19 30 20 13 11 10 16 21 21 18 10 10 11 16 11 26 41 48 47 47 49
45 45 45 45 46 46 43 43 42 40 36 35 32 25 26 40 41 45 37 27 21 15 11 13 14 23 17 11 10 12 14 14 10 10 23 22 22 15 14 12 14 15 15 17 16 22 24 18 18 18 17 14 13 15 25 18 18 20 19 17 14 11 12 9 8 11 17 16 14 15 16 9 10 14 14 10 9 17 32 34 39 42 43 43 47 48 46 49
45 45 45 45 46 46 45 44 42 41 40 36 35 29 34 41 42 36 33 26 27 17 21 16 21 16 16 10 12 14 13 12 8 7 11 22 21 19 14 15 16 14 14 13 15 23 18 18 16 14 12 12 15 15 17 19 16 15 14 13 11 9 16 10 18 14 22 15 14 17 22 7 8 23 17 23 18 33 38 41 45 47 48 48 46 46 50 55
45 45 45 45 45 43 44 45 42 42 42 42 38 32 41 42 38 32 25 19 26 21 16 18 19 14 16 13 14 15 13 9 10 6 5 20 21 22 20 21 16 16 15 12 10 11 10 25 21 15 10 14 17 17 16 15 13 12 12 10 9 8 11 19 22 19 18 11 17 18 23 10 8 19 19 25 36 37 41 45 48 49 50 51 50 52 54 56
44 45 45 45 42 41 42 40 41 43 42 43 41 41 42 41 37 27 18 21 19 16 17 16 16 17 15 14 14 15 14 11 10 4 0 13 20 19 21 17 18 16 21 22 11 9 8 7 13 16 22 15 16 18 15 14 11 8 11 10 15 23 19 20 22 20 9 14 17 11 13 14 6 20 36 40 44 46 46 47 49 50 50 52 53 53 54 55
45 46 46 44 43 44 41 38 41 42 41 42 43 42 39 30 30 28 22 12 15 17 17 16 16 17 17 15 13 13 11 10 11 1 -3 1 19 17 17 19 25 16 16 17 17 11 9 6 14 16 25 18 15 14 13 10 11 7 14 14 15 15 16 14 11 10 11 14 17 10 6 8 18 36 41 42 46 48 49 49 50 50 50 51 53 55 56 55
46 46 47 45 45 43 43 43 43 42 42 42 44 41 35 28 20 22 23 26 17 16 15 17 15 14 17 16 14 12 12 11 14 5 -3 -3 14 15 15 14 17 20 17 24 22 16 14 11 11 12 16 23 17 14 15 12 13 13 13 19 12 9 9 7 14 13 13 16 16 12 24 16 35 38 39 41 45 48 49 51 51 51 51 51 52 53 55 57
47 47 45 44 43 43 44 45 43 42 42 45 42 38 35 27 25 23 22 24 16 13 12 13 13 12 13 13 13 12 10 12 12 10 -1 5 5 19 13 14 14 14 21 27 16 18 14 11 10 13 15 19 18 17 15 16 13 11 12 11 18 14 15 7 8 8 11 15 25 25 19 16 22 38 42 42 45 47 49 50 51 52 52 53 53 54 54 54
47 47 45 45 45 44 44 44 44 44 44 44 39 35 28 27 29 27 24 16 14 11 8 11 12 11 12 12 12 13 13 14 12 9 3 7 9 17 17 11 12 12 16 15 26 17 14 19 18 12 14 17 17 18 17 15 12 11 10 9 14 16 16 9 16 12 16 17 22 21 20 34 36 45 42 44 46 46 49 50 51 51 51 52 52 53 53 54
46 44 46 45 45 45 45 44 44 44 43 42 37 29 29 29 28 23 17 9 7 8 8 8 8 13 15 10 11 8 14 15 11 12 9 8 10 9 9 8 9 9 15 18 25 16 14 20 13 12 10 17 16 16 15 14 13 21 9 11 13 20 12 13 13 24 19 16 16 21 32 36 37 41 42 44 46 46 48 51 51 52 52 52 52 52 53 52
42 43 43 46 46 47 46 45 44 44 43 41 34 30 31 29 26 23 15 7 8 8 5 13 21 15 20 13 15 6 13 13 18 12 16 10 14 5 5 5 5 4 4 17 22 16 22 23 18 17 11 13 15 14 12 11 11 10 14 14 14 13 16 16 13 16 11 12 15 19 22 33 32 29 39 43 44 45 47 51 52 52 52 53 52 53 53 54
42 42 45 45 46 47 46 44 43 43 42 40 34 36 32 28 27 23 9 9 9 6 7 11 19 7 13 12 9 6 12 12 17 10 25 11 20 8 6 5 3 2 3 5 10 27 16 14 18 18 16 13 14 14 12 11 11 9 11 15 13 11 10 19 8 8 10 11 14 15 32 33 35 33 41 42 44 45 47 50 51 51 51 52 53 53 54 54
42 42 42 44 45 47 44 43 42 40 38 34 30 32 31 28 25 15 9 8 11 5 7 3 15 14 5 14 13 5 10 14 14 16 13 17 14 36 24 5 7 4 5 5 7 23 27 19 22 18 16 16 14 14 19 14 11 11 10 8 16 18 21 11 13 15 18 16 12 15 29 28 39 38 44 43 45 46 48 49 50 51 51 51 52 53 54 54
41 42 44 43 43 43 41 42 41 38 34 29 29 29 26 21 21 9 8 9 6 6 18 9 10 14 14 9 7 16 13 15 15 21 15 25 20 36 22 17 11 5 5 6 6 18 19 28 19 27 18 15 15 17 18 16 14 12 12 13 14 25 25 18 26 15 16 16 18 20 21 31 40 44 45 46 47 47 49 49 49 50 50 51 53 53 53 53
43 43 45 47 39 41 41 40 36 33 31 27 24 22 20 18 11 10 11 18 11 9 12 10 15 19 18 19 15 14 16 15 21 21 15 32 27 28 33 27 28 26 7 4 4 22 20 19 21 24 19 22 17 15 13 11 14 15 13 15 12 17 16 11 19 24 22 23 17 20 22 35 45 47 47 47 49 50 50 50 49 49 49 50 51 52 52 52
43 40 45 46 43 42 38 33 32 33 29 25 22 20 20 29 11 8 8 12 14 6 8 15 16 15 17 11 13 13 16 16 14 20 23 26 36 34 35 31 27 30 29 27 25 32 29 29 27 20 22 20 16 14 16 13 14 11 9 11 8 16 18 18 14 24 28 31 29 30 29 33 46 48 47 47 49 49 50 50 48 48 49 49 50 51 51 51
42 41 53 49 45 40 36 32 30 28 26 24 21 20 14 12 14 10 10 14 12 6 15 22 18 14 17 14 10 8 15 22 17 22 28 35 39 35 32 35 33 30 31 36 33 38 42 22 20 20 20 19 18 17 19 16 13 11 12 22 18 15 19 17 23 27 23 26 24 25 27 36 45 47 48 48 49 48 48 48 48 48 48 48 48 49 49 48
44 45 48 47 43 38 35 28 26 26 26 26 25 22 19 16 15 12 6 17 15 15 17 20 16 13 17 7 14 12 19 20 19 17 28 27 37 38 35 36 36 32 35 39 36 39 26 29 26 22 18 19 22 21 24 27 28 31 36 37 34 33 34 37 33 31 26 27 28 25 27 33 45 48 49 49 47 46 46 46 47 46 46 47 47 47 47 47
45 48 47 46 43 42 38 39 38 32 34 33 29 30 26 28 20 18 20 20 16 15 26 26 19 20 14 12 14 15 14 16 25 23 29 37 39 34 36 37 39 40 44 46 47 37 34 34 28 23 20 15 14 20 26 29 30 32 39 38 38 34 32 30 25 26 27 29 33 30 32 39 46 48 47 46 44 44 44 44 44 45 45 46 46 46 46 46
43 33 42 44 44 43 43 44 42 40 36 35 26 32 26 31 21 18 18 19 19 19 22 20 19 19 19 19 23 16 14 17 19 28 25 36 35 37 40 37 40 41 47 48 44 43 37 37 35 32 29 28 29 31 38 33 36 36 38 38 38 38 37 35 33 29 28 29 31 34 36 40 43 43 43 43 43 43 42 42 42 42 43 44 43 43 44 43
47 39 35 35 41 42 41 41 39 38 34 35 24 33 30 26 25 20 20 27 23 21 19 26 20 24 27 24 29 24 19 18 18 20 30 36 39 41 40 44 38 43 46 44 46 40 37 31 37 37 36 34 34 37 36 37 37 38 38 38 39 39 40 38 31 30 36 29 28 38 41 40 40 41 42 42 42 41 41 41 41 42 42 43 41 41 43 42
38 42 44 44 36 31 34 35 37 36 35 30 33 34 33 29 29 26 28 19 19 22 27 22 17 17 18 26 30 22 27 24 26 29 32 35 36 39 39 39 39 43 42 39 43 42 36 29 37 37 37 39 35 36 36 35 35 37 38 39 38 40 40 38 38 40 38 30 29 38 41 38 39 41 41 41 41 40 39 39 40 42 43 41 41 41 41 41
46 45 45 45 36 36 36 36 37 35 36 32 32 32 34 32 32 29 27 28 19 26 19 19 29 17 14 15 23 26 26 20 22 35 36 37 37 37 35 40 40 44 42 42 42 43 38 32 37 37 37 37 35 36 36 34 34 34 35 36 38 38 39 39 39 40 40 39 38 39 38 38 40 40 40 40 39 39 39 39 38 38 40 40 39 41 39 40
43 42 41 43 46 38 38 36 35 33 31 32 24 32 32 33 30 32 21 26 25 31 21 28 22 15 14 12 24 30 35 36 34 28 36 39 38 38 37 37 36 42 46 42 42 45 36 31 39 37 34 37 39 37 34 34 33 32 33 35 37 38 38 38 38 38 40 39 39 38 37 36 39 39 38 38 38 37 37 37 37 37 38 38 39 39 38 39
49 51 46 42 39 40 36 34 30 31 26 26 26 31 32 30 31 30 32 24 33 32 27 28 24 26 22 24 28 28 27 34 33 32 38 34 32 38 37 37 40 39 39 44 43 43 41 33 40 34 29 33 39 36 34 34 33 31 32 33 35 37 36 36 35 38 38 37 38 38 36 34 37 37 36 37 37 37 36 36 37 37 37 37 38 37 38 39
49 46 46 44 36 34 30 30 32 30 24 30 33 29 31 31 25 23 24 22 21 26 33 29 34 27 29 32 33 30 30 28 25 25 25 28 31 33 32 40 37 36 37 42 42 39 41 35 32 31 30 30 37 37 36 36 34 30 30 33 35 37 37 37 37 37 38 38 35 33 33 38 38 37 35 35 36 36 36 37 37 37 37 37 37 37 37 38